Location: Unspecified
(0.0000°N, 0.0000°E)
Time: 11:28:53
(UTC+00:00)

Vanguard 2 - Pass Details

Date: 20 November 2019
Orbit: 553 x 2938 km, 32.9° (Epoch: 14 December)

Event Time Altitude Azimuth Distance (km) Brightness Sun altitude
Rises 01:49:54 0° 222° (SW) 6,315 12.2 -53.8°
Reaches altitude 10° 01:54:19 10° 214° (SW) 5,512 11.8 -52.9°
Maximum altitude 02:10:19 42° 149° (SSE) 3,755 11.0 -49.5°
Drops below altitude 10° 02:25:15 10° 84° (E) 5,222 12.2 -46.2°
Sets 02:29:13 0° 77° (ENE) 5,974 12.6 -45.4°
